[[{"header":{"parameterUnit":"m.s-1","parameterCategory":1,"la1":30.2991,"la2":30.254,"lo1":-89.0895,"lo2":-89.0444,"dy":0.0017,"dx":0.0017,"nx":28,"ny":28,"refTime":"2024-10-10T09:00:00:Z","depth":0,"parameterNumber":2,"parameterNumberName":"U-component_of_WINDS"},"data":[0,0,0,0,0,0,0,0,0,0,0,0,0,0,0,0,0,0,0,0,0,0,0,0,0,0,0,0,0,0,0,0,0,0,0,0,0,0,0,0,0,0,0,0,0,0,0,0,0,0,0,0,0,0,0,0,0,0,-0.5067,-0.5068,0,-0.511,-0.5111,-0.5111,-0.5093,-0.5092,-0.5091,-0.509,-0.5138,-0.514,-0.5142,0,0,0,0,0,0,0,0,0,0,0,0,0,-0.4973,-0.4975,-0.5067,-0.5068,-0.5068,-0.511,-0.5111,-0.5111,-0.5093,-0.5092,-0.5091,-0.5089,-0.5137,-0.514,-0.5142,0,0,0,0,0,0,0,0,0,0,0,0,0,-0.5015,-0.4976,-0.5067,-0.5064,-0.5064,-0.511,-0.5111,-0.5112,-0.5093,-0.5092,-0.509,-0.5089,-0.5136,-0.5139,-0.5143,-0.5195,0,0,-0.5153,-0.5155,0,0,0,0,0,0,0,0,-0.5013,-0.5018,-0.5064,-0.5065,-0.5065,-0.5095,-0.5095,-0.514,-0.5094,-0.5083,-0.509,-0.5088,-0.5125,-0.5129,-0.5141,-0.5197,-0.5199,-0.5153,-0.5155,-0.5157,-0.5158,0,0,0,0,0,0,0,-0.501,-0.5017,-0.5084,-0.5065,-0.5065,-0.5062,-0.5066,-0.5103,-0.5112,-0.5083,-0.5082,-0.5087,-0.5125,-0.5138,-0.5142,-0.52,-0.5153,-0.5156,-0.5158,-0.516,-0.5303,-0.5304,0,0,0,0,0,0,-0.5006,-0.5014,-0.5083,-0.5086,-0.5034,-0.5065,-0.507,-0.5087,-0.5112,-0.5114,-0.5089,-0.5086,-0.5133,-0.5138,-0.5143,-0.5207,-0.5157,-0.516,-0.5162,-0.5301,-0.5303,-0.5305,0,0,0,0,0,0,-0.5004,-0.5013,-0.5081,-0.505,-0.5058,-0.5068,-0.5088,-0.5088,-0.5101,-0.5116,-0.5117,-0.51,-0.5132,-0.5139,-0.5182,-0.5209,-0.5162,-0.5165,-0.5299,-0.5301,-0.5304,-0.5335,0,0,0,0,0,0,-0.5002,-0.5012,-0.5031,-0.505,-0.506,-0.5119,-0.5089,-0.509,-0.5106,-0.5104,-0.5127,-0.5129,-0.5131,-0.5177,-0.5186,-0.5212,-0.5167,-0.5296,-0.53,-0.5303,-0.5332,-0.5338,-0.5344,0,0,0,0,0,-0.4998,-0.5039,-0.5032,-0.5041,-0.5084,-0.512,-0.5126,-0.5126,-0.5109,-0.5129,-0.5138,-0.5128,-0.5204,-0.5182,-0.5191,-0.5219,-0.5295,-0.5299,-0.5303,-0.5329,-0.5337,-0.5344,0,0,0,0,0,0,-0.5024,-0.5041,-0.5034,-0.5082,-0.5099,-0.5117,-0.5142,-0.5135,-0.5159,-0.5156,-0.5156,-0.5161,-0.5207,-0.5217,-0.5192,-0.5272,-0.5247,-0.5253,-0.5263,-0.5271,-0.5277,-0.5275,-0.517,0,0,0,0,0,-0.5035,-0.5062,-0.5076,-0.5117,-0.5126,-0.5132,-0.5148,-0.5147,-0.5166,-0.5174,-0.5186,-0.5206,-0.5234,-0.5253,-0.528,-0.5332,-0.5338,-0.5356,-0.5362,-0.5367,-0.5373,-0.5403,-0.5412,-0.5318,-0.5318,-0.5318,0,0,-0.5059,-0.5071,-0.5089,-0.5122,-0.5136,-0.5165,-0.5139,-0.5171,-0.5193,-0.5179,-0.5221,-0.523,-0.5253,-0.5301,-0.5323,-0.5311,-0.54,-0.5372,-0.5376,-0.538,-0.5408,-0.5417,-0.5425,-0.5321,-0.532,-0.532,0,0,-0.5117,-0.5128,-0.5164,-0.5178,-0.5198,-0.5202,-0.5211,-0.5229,-0.5235,-0.5276,-0.5267,-0.5293,-0.5342,-0.5358,-0.5373,-0.5436,-0.5429,-0.5445,-0.5478,-0.5507,-0.5515,-0.5521,-0.5546,-0.5554,-0.545,-0.5451,-0.5451,0,-0.5144,-0.5186,-0.5184,-0.5216,-0.5232,-0.5218,-0.5255,-0.5269,-0.5298,-0.531,-0.5295,-0.5356,-0.537,-0.5423,-0.5438,-0.545,-0.5461,-0.5444,-0.5514,-0.552,-0.5527,-0.555,-0.5559,-0.5453,-0.5452,-0.5452,-0.5452,0,-0.522,-0.5249,-0.5276,-0.5302,-0.5321,-0.5355,-0.5359,-0.5378,-0.5374,-0.538,-0.5424,-0.544,-0.547,-0.5482,-0.5479,-0.5535,-0.5527,-0.5513,-0.5489,-0.5537,-0.556,-0.5568,-0.5455,-0.5455,-0.5454,-0.5454,0,0,-0.5297,-0.5321,-0.5331,-0.5343,-0.5364,-0.5388,-0.5422,-0.545,-0.5467,-0.5487,-0.5517,-0.5558,-0.5545,-0.5562,-0.5561,-0.5586,-0.5637,-0.5569,-0.557,-0.5583,-0.5701,-0.5713,-0.5723,-0.5631,-0.5633,-0.5634,-0.57,0,-0.5358,-0.5417,-0.5415,-0.5471,-0.5499,-0.5486,-0.5516,-0.5533,-0.5539,-0.5565,-0.5572,-0.5602,-0.5582,-0.5592,-0.5616,-0.5626,-0.5661,-0.5621,-0.5661,-0.5663,-0.5658,-0.5734,-0.5747,-0.5808,-0.5708,-0.571,-0.5711,0,-0.5438,-0.5459,-0.5517,-0.5534,-0.5546,-0.5573,-0.5599,-0.5623,-0.5642,-0.5645,-0.5663,-0.5658,-0.5694,-0.5667,-0.5718,-0.569,-0.5706,-0.5713,-0.5716,-0.5721,-0.5691,-0.5744,-0.5827,-0.5837,-0.5724,-0.5723,-0.5722,0,-0.5491,-0.5534,-0.5574,-0.5585,-0.5606,-0.5625,-0.5635,-0.5652,-0.5669,-0.5692,-0.5704,-0.5731,-0.5746,-0.5768,-0.5771,-0.575,-0.5822,-0.5795,-0.5827,-0.5828,-0.5845,-0.5844,-0.5934,-0.5852,-0.5852,-0.5852,-0.5851,0,-0.556,-0.5597,-0.5599,-0.5624,-0.5665,-0.5662,-0.5703,-0.5711,-0.5727,-0.5754,-0.5744,-0.5771,-0.5772,-0.5799,-0.5802,-0.5844,-0.5851,-0.5856,-0.5856,-0.5858,-0.5857,-0.587,-0.5867,-0.5854,-0.5853,-0.5853,-0.5853,0,-0.5628,-0.563,-0.5673,-0.5689,-0.5693,-0.5723,-0.5737,-0.5762,-0.5766,-0.5801,-0.5809,-0.5817,-0.5849,-0.5853,-0.589,-0.5892,-0.5944,-0.5939,-0.5937,-0.5937,-0.597,-0.5968,-0.6073,-0.6088,-0.5994,-0.5995,-0.5996,0,-0.5673,-0.5701,-0.5718,-0.5736,-0.5746,-0.5774,-0.5791,-0.5789,-0.5808,-0.5831,-0.5854,-0.5884,-0.5908,-0.596,-0.597,-0.5998,-0.5996,-0.603,-0.6,-0.6001,-0.5999,-0.5998,-0.6001,-0.6037,-0.6038,-0.6039,-0.604,0,-0.5754,-0.5753,-0.5778,-0.5803,-0.5823,-0.5843,-0.5862,-0.5877,-0.5878,-0.5899,-0.5931,-0.5949,-0.5987,-0.6018,-0.6046,-0.6057,-0.605,-0.6049,-0.6058,-0.6061,-0.606,-0.6063,-0.5956,-0.6047,-0.6046,-0.6046,-0.6045,-0.6045,-0.5813,-0.5837,-0.5854,-0.5881,-0.5895,-0.5913,-0.5937,-0.5944,-0.5969,-0.5999,-0.5997,-0.6032,-0.6051,-0.6088,-0.6101,-0.6129,-0.6118,-0.6131,-0.6135,-0.6139,-0.6143,-0.6053,-0.6134,-0.6134,-0.6134,-0.6134,-0.6133,0,-0.5895,-0.5905,-0.593,-0.5956,-0.5978,-0.5966,-0.5986,-0.6006,-0.6037,-0.6054,-0.6078,-0.6115,-0.6144,-0.6156,-0.6186,-0.6206,-0.6204,-0.6214,-0.6214,-0.6217,-0.615,-0.614,-0.6216,-0.6216,-0.6216,-0.6216,-0.6216,-0.6216,-0.5941,-0.5982,-0.5983,-0.6031,-0.604,-0.6074,-0.6087,-0.6103,-0.6117,-0.6158,-0.6182,-0.6189,-0.6205,-0.6235,-0.6262,-0.6265,-0.6278,-0.629,-0.6292,-0.623,-0.6222,-0.6214,-0.6204,-0.6293,-0.6293,-0.6357,-0.6357,-0.6358]},{"header":{"parameterUnit":"m.s-1","parameterCategory":1,"la1":30.2991,"la2":30.254,"lo1":-89.0895,"lo2":-89.0444,"dy":0.0017,"dx":0.0017,"nx":28,"ny":28,"refTime":"2024-10-10T09:00:00:Z","depth":0,"parameterNumber":3,"parameterNumberName":"V-component_of_WINDS"},"data":[0,0,0,0,0,0,0,0,0,0,0,0,0,0,0,0,0,0,0,0,0,0,0,0,0,0,0,0,0,0,0,0,0,0,0,0,0,0,0,0,0,0,0,0,0,0,0,0,0,0,0,0,0,0,0,0,0,0,-3.6077,-3.6077,0,-3.6119,-3.612,-3.612,-3.6077,-3.6075,-3.6073,-3.6072,-3.6112,-3.6114,-3.6117,0,0,0,0,0,0,0,0,0,0,0,0,0,-3.5954,-3.5956,-3.6076,-3.6077,-3.6078,-3.6119,-3.612,-3.612,-3.6077,-3.6075,-3.6073,-3.6071,-3.6111,-3.6114,-3.6117,0,0,0,0,0,0,0,0,0,0,0,0,0,-3.6003,-3.5957,-3.6076,-3.6061,-3.606,-3.6119,-3.612,-3.6121,-3.6077,-3.6075,-3.6072,-3.607,-3.611,-3.6114,-3.6118,-3.6193,0,0,-3.613,-3.6131,0,0,0,0,0,0,0,0,-3.6,-3.6007,-3.6063,-3.6062,-3.6061,-3.609,-3.6091,-3.6145,-3.6078,-3.6071,-3.6072,-3.6069,-3.6106,-3.611,-3.6124,-3.6195,-3.6196,-3.613,-3.6133,-3.6134,-3.6135,0,0,0,0,0,0,0,-3.5997,-3.6005,-3.6093,-3.6064,-3.6063,-3.6051,-3.6055,-3.6101,-3.6102,-3.6071,-3.6068,-3.6074,-3.6105,-3.612,-3.6125,-3.6197,-3.613,-3.6134,-3.6136,-3.6138,-3.6332,-3.6334,0,0,0,0,0,0,-3.5995,-3.6003,-3.6092,-3.6095,-3.6024,-3.6055,-3.606,-3.6083,-3.6102,-3.6102,-3.6076,-3.6072,-3.6115,-3.612,-3.6126,-3.6215,-3.6134,-3.6138,-3.614,-3.6329,-3.6332,-3.6335,0,0,0,0,0,0,-3.5993,-3.6004,-3.609,-3.6048,-3.6058,-3.606,-3.6087,-3.6086,-3.61,-3.6105,-3.6105,-3.6091,-3.6113,-3.612,-3.6177,-3.6216,-3.614,-3.6143,-3.6326,-3.633,-3.6334,-3.6394,0,0,0,0,0,0,-3.599,-3.6003,-3.6033,-3.6049,-3.606,-3.6142,-3.6089,-3.6088,-3.6108,-3.6103,-3.6119,-3.612,-3.6112,-3.6171,-3.6181,-3.622,-3.6146,-3.6322,-3.6327,-3.6332,-3.6388,-3.64,-3.6409,0,0,0,0,0,-3.5985,-3.6047,-3.6034,-3.6045,-3.6097,-3.6144,-3.615,-3.6141,-3.6111,-3.614,-3.6143,-3.6119,-3.621,-3.6177,-3.6188,-3.6229,-3.6319,-3.6326,-3.6332,-3.6384,-3.6397,-3.6409,0,0,0,0,0,0,-3.6033,-3.6049,-3.6035,-3.6104,-3.6123,-3.6137,-3.6173,-3.6155,-3.6183,-3.6176,-3.6162,-3.6166,-3.6226,-3.6233,-3.6196,-3.6302,-3.626,-3.6268,-3.6296,-3.6309,-3.6319,-3.6315,-3.615,0,0,0,0,0,-3.6052,-3.609,-3.6101,-3.616,-3.6171,-3.6171,-3.619,-3.6182,-3.62,-3.6208,-3.6215,-3.6234,-3.6266,-3.6288,-3.6318,-3.639,-3.6392,-3.6423,-3.6433,-3.6442,-3.6449,-3.6487,-3.65,-3.6356,-3.6356,-3.6356,0,0,-3.6091,-3.6104,-3.6128,-3.617,-3.6184,-3.6223,-3.6177,-3.622,-3.6248,-3.6214,-3.6268,-3.6274,-3.6294,-3.6358,-3.6387,-3.6365,-3.649,-3.645,-3.6456,-3.6459,-3.6495,-3.6508,-3.6521,-3.636,-3.6359,-3.6358,0,0,-3.6181,-3.6195,-3.6246,-3.6262,-3.6284,-3.6284,-3.6296,-3.6313,-3.6316,-3.637,-3.6346,-3.6378,-3.6435,-3.645,-3.6465,-3.6562,-3.6541,-3.6572,-3.6626,-3.6663,-3.6675,-3.6685,-3.6719,-3.6731,-3.658,-3.658,-3.658,0,-3.6225,-3.6284,-3.6274,-3.6319,-3.6338,-3.6311,-3.6362,-3.6377,-3.6408,-3.6421,-3.6397,-3.6468,-3.6479,-3.6547,-3.6571,-3.6584,-3.6597,-3.657,-3.6674,-3.6684,-3.6693,-3.6725,-3.6738,-3.6584,-3.6583,-3.6583,-3.6582,0,-3.6337,-3.6378,-3.6417,-3.6449,-3.6472,-3.652,-3.6517,-3.6542,-3.6531,-3.6533,-3.6588,-3.6601,-3.6634,-3.6649,-3.6639,-3.6715,-3.6702,-3.6676,-3.6633,-3.6711,-3.6741,-3.6753,-3.6589,-3.6588,-3.6586,-3.6586,0,0,-3.6457,-3.6485,-3.6499,-3.6513,-3.6537,-3.6567,-3.6614,-3.6647,-3.6668,-3.6691,-3.6729,-3.6778,-3.6755,-3.6772,-3.6763,-3.6796,-3.6872,-3.6767,-3.6767,-3.6785,-3.6957,-3.6975,-3.6989,-3.6859,-3.6861,-3.6863,-3.6955,0,-3.6547,-3.6629,-3.6623,-3.67,-3.6737,-3.6713,-3.6753,-3.6771,-3.6774,-3.6805,-3.6808,-3.6843,-3.6811,-3.6821,-3.6853,-3.6856,-3.6906,-3.6849,-3.6892,-3.6894,-3.6887,-3.7005,-3.7024,-3.711,-3.6966,-3.6968,-3.697,0,-3.6663,-3.6691,-3.6773,-3.6791,-3.6807,-3.6843,-3.6873,-3.6904,-3.6924,-3.6924,-3.6944,-3.693,-3.6975,-3.6932,-3.6995,-3.6957,-3.6974,-3.6978,-3.6982,-3.6984,-3.6936,-3.701,-3.7138,-3.715,-3.6988,-3.6987,-3.6986,0,-3.6742,-3.68,-3.6856,-3.6869,-3.6892,-3.6919,-3.6929,-3.6947,-3.6968,-3.6994,-3.7007,-3.7038,-3.7054,-3.7078,-3.7072,-3.7041,-3.7136,-3.7092,-3.7136,-3.7136,-3.7156,-3.7154,-3.7287,-3.7169,-3.7168,-3.7168,-3.7168,0,-3.6842,-3.6893,-3.6892,-3.6926,-3.6982,-3.6974,-3.7029,-3.7036,-3.7052,-3.7087,-3.7068,-3.71,-3.7091,-3.7123,-3.7119,-3.7171,-3.7178,-3.7179,-3.7177,-3.718,-3.718,-3.719,-3.7184,-3.7172,-3.7171,-3.717,-3.717,0,-3.6939,-3.694,-3.7,-3.7018,-3.7023,-3.7064,-3.7078,-3.711,-3.7112,-3.7156,-3.7166,-3.7169,-3.7206,-3.7203,-3.7244,-3.7241,-3.7305,-3.7297,-3.7299,-3.7297,-3.734,-3.7336,-3.7483,-3.7502,-3.7373,-3.7374,-3.7375,0,-3.7002,-3.7041,-3.7063,-3.7086,-3.7099,-3.7136,-3.7157,-3.7151,-3.7174,-3.72,-3.7229,-3.7265,-3.7292,-3.7352,-3.7357,-3.7388,-3.738,-3.7429,-3.7384,-3.7386,-3.7379,-3.7377,-3.738,-3.7438,-3.7439,-3.744,-3.7441,0,-3.7115,-3.7114,-3.7147,-3.718,-3.7207,-3.7232,-3.7256,-3.7275,-3.7271,-3.7298,-3.7336,-3.7358,-3.7401,-3.7436,-3.7466,-3.7475,-3.7458,-3.7456,-3.7468,-3.7471,-3.747,-3.747,-3.7322,-3.7452,-3.7451,-3.745,-3.745,-3.7449,-3.7196,-3.7229,-3.7251,-3.7288,-3.7305,-3.7328,-3.7359,-3.7366,-3.7399,-3.7434,-3.7428,-3.7471,-3.749,-3.7529,-3.7542,-3.7574,-3.7556,-3.7573,-3.7577,-3.7581,-3.7586,-3.7466,-3.758,-3.7579,-3.7579,-3.7579,-3.7579,0,-3.7307,-3.732,-3.7355,-3.7389,-3.7418,-3.7401,-3.7426,-3.7451,-3.749,-3.751,-3.7538,-3.7582,-3.7617,-3.7625,-3.7658,-3.7682,-3.7675,-3.7691,-3.7688,-3.7691,-3.76,-3.7587,-3.7696,-3.7696,-3.7696,-3.7696,-3.7696,-3.7696,-3.7368,-3.7423,-3.7426,-3.7489,-3.7501,-3.7545,-3.756,-3.7581,-3.7597,-3.7648,-3.7677,-3.7683,-3.7698,-3.7732,-3.7763,-3.7764,-3.7776,-3.7796,-3.7794,-3.7709,-3.7697,-3.7686,-3.7673,-3.7799,-3.7799,-3.7881,-3.7882,-3.7882]}]]